[[{"header":{"parameterUnit":"m.s-1","parameterCategory":1,"la1":30.2991,"la2":30.254,"lo1":-89.0895,"lo2":-89.0444,"dy":0.0017,"dx":0.0017,"nx":28,"ny":28,"refTime":"2023-08-09T21:00:00:Z","depth":0,"parameterNumber":2,"parameterNumberName":"U-component_of_WINDS"},"data":[0,0,0,0,0,0,0,0,0,0,0,0,0,0,0,0,0,0,0,0,0,0,0,0,0,0,0,0,0,0,0,0,0,0,0,0,0,0,0,0,0,0,0,0,0,0,0,0,0,0,0,0,0,0,0,0,0,0,0.6233,0.6233,0,0.63,0.63,0.6301,0.6259,0.6257,0.6255,0.6253,0.633,0.6334,0.6338,0,0,0,0,0,0,0,0,0,0,0,0,0,0.6077,0.608,0.6233,0.6233,0.6234,0.63,0.6301,0.6301,0.626,0.6257,0.6255,0.6253,0.6329,0.6333,0.6338,0,0,0,0,0,0,0,0,0,0,0,0,0,0.6144,0.6081,0.6232,0.6221,0.6221,0.6299,0.6301,0.6302,0.626,0.6257,0.6254,0.6251,0.6327,0.6333,0.6339,0.6435,0,0,0.6356,0.6359,0,0,0,0,0,0,0,0,0.614,0.615,0.6222,0.6222,0.6222,0.6268,0.6273,0.6347,0.6261,0.6246,0.6253,0.625,0.6312,0.6319,0.6339,0.6438,0.6441,0.6357,0.6361,0.6363,0.6365,0,0,0,0,0,0,0,0.6136,0.6147,0.6259,0.6223,0.6223,0.6215,0.6222,0.6287,0.6295,0.6247,0.6244,0.6252,0.6312,0.6333,0.634,0.6443,0.6357,0.6362,0.6366,0.6368,0.6628,0.6631,0,0,0,0,0,0,0.6131,0.6143,0.6257,0.6261,0.6173,0.6221,0.6228,0.6256,0.6294,0.6297,0.6254,0.625,0.6325,0.6333,0.6343,0.646,0.6363,0.6368,0.6372,0.6624,0.6628,0.6632,0,0,0,0,0,0,0.6128,0.6141,0.6255,0.6202,0.6215,0.6226,0.6259,0.6259,0.628,0.63,0.6302,0.6274,0.6323,0.6334,0.6412,0.6462,0.6371,0.6376,0.662,0.6625,0.663,0.6694,0,0,0,0,0,0,0.6123,0.6141,0.6175,0.6203,0.6218,0.6321,0.6262,0.6263,0.629,0.6284,0.6319,0.6322,0.6321,0.6404,0.6418,0.6468,0.6381,0.6616,0.6623,0.6629,0.6688,0.6701,0.6712,0,0,0,0,0,0.6118,0.6192,0.6177,0.6191,0.6261,0.6324,0.6333,0.6328,0.6294,0.633,0.6343,0.6321,0.6453,0.6412,0.6428,0.6481,0.6613,0.6621,0.6628,0.6682,0.6698,0.6712,0,0,0,0,0,0,0.6172,0.6195,0.6179,0.6263,0.6292,0.6316,0.6362,0.6345,0.6385,0.6379,0.6373,0.6382,0.6464,0.6479,0.6433,0.6577,0.6528,0.6539,0.6564,0.6579,0.6591,0.6588,0.6386,0,0,0,0,0,0.6193,0.624,0.6258,0.6331,0.6345,0.6351,0.6378,0.6372,0.6402,0.6415,0.6433,0.6466,0.6515,0.6547,0.6593,0.6689,0.6698,0.6733,0.6745,0.6755,0.6766,0.6821,0.6838,0.6657,0.6657,0.6657,0,0,0.6239,0.6257,0.6287,0.6342,0.6363,0.6414,0.6362,0.6417,0.6456,0.6424,0.6499,0.6513,0.6549,0.6637,0.6677,0.6653,0.6818,0.6765,0.6773,0.6778,0.6831,0.6848,0.6863,0.6662,0.6661,0.666,0,0,0.6349,0.6365,0.6429,0.6451,0.6483,0.6486,0.6502,0.6529,0.6537,0.6611,0.6589,0.6636,0.672,0.6747,0.6772,0.6893,0.6875,0.6908,0.6973,0.7026,0.7041,0.7053,0.71,0.7116,0.6918,0.6918,0.6918,0,0.6402,0.6475,0.6465,0.6522,0.6549,0.6519,0.6585,0.6608,0.6655,0.6675,0.6646,0.6752,0.6774,0.6869,0.6899,0.6919,0.6939,0.6905,0.7039,0.7052,0.7063,0.7108,0.7125,0.6922,0.6921,0.6921,0.6921,0,0.6541,0.6593,0.6641,0.6684,0.6716,0.6778,0.6779,0.6812,0.6803,0.6811,0.6889,0.6913,0.6965,0.6987,0.6979,0.7082,0.7067,0.7039,0.699,0.7085,0.7127,0.7143,0.6928,0.6926,0.6925,0.6924,0,0,0.6689,0.6725,0.6744,0.6764,0.6797,0.6838,0.69,0.6948,0.6979,0.7012,0.7066,0.7137,0.7112,0.714,0.7135,0.7182,0.728,0.7149,0.715,0.7175,0.7399,0.7423,0.7442,0.7267,0.727,0.7273,0.7398,0,0.6803,0.6908,0.6901,0.7001,0.7051,0.7023,0.7077,0.7105,0.7114,0.7159,0.7169,0.7222,0.7182,0.72,0.7244,0.7259,0.7326,0.7249,0.7321,0.7324,0.7317,0.7464,0.7488,0.7605,0.7413,0.7416,0.7418,0,0.6951,0.6988,0.7093,0.712,0.714,0.7189,0.7234,0.7276,0.7308,0.7312,0.7343,0.7331,0.7396,0.7343,0.7435,0.7384,0.7412,0.7424,0.7429,0.7438,0.738,0.7481,0.7642,0.7661,0.7443,0.7441,0.7439,0,0.7053,0.7128,0.7201,0.7219,0.7252,0.7288,0.7303,0.7332,0.7362,0.7402,0.7422,0.747,0.7497,0.7535,0.7537,0.7498,0.7632,0.7578,0.764,0.764,0.7673,0.7671,0.7844,0.7685,0.7685,0.7684,0.7684,0,0.7184,0.725,0.7248,0.7293,0.7368,0.7359,0.7434,0.7446,0.7472,0.7522,0.7501,0.7549,0.7546,0.7596,0.7597,0.7676,0.7687,0.7695,0.7695,0.7699,0.7698,0.7721,0.7714,0.7689,0.7688,0.7687,0.7686,0,0.7311,0.7312,0.7391,0.7415,0.7422,0.7477,0.7499,0.7544,0.7549,0.7613,0.7628,0.7639,0.7696,0.77,0.7766,0.7768,0.7864,0.7854,0.7853,0.7853,0.7916,0.7911,0.8112,0.814,0.7959,0.796,0.7962,0,0.7396,0.7447,0.7476,0.7506,0.7524,0.7574,0.7604,0.7598,0.7631,0.7672,0.7713,0.7767,0.781,0.7903,0.7919,0.7971,0.7964,0.803,0.7972,0.7975,0.797,0.7968,0.7975,0.8044,0.8045,0.8047,0.8048,0,0.7549,0.7547,0.759,0.7634,0.7671,0.7706,0.7738,0.7765,0.7763,0.7802,0.7859,0.7893,0.796,0.8016,0.8066,0.8085,0.8069,0.8066,0.8084,0.809,0.8089,0.8095,0.7888,0.8063,0.8061,0.806,0.8059,0.8059,0.7661,0.7705,0.7733,0.7783,0.7806,0.7837,0.7881,0.7892,0.7939,0.7992,0.7985,0.805,0.8082,0.8148,0.8171,0.8223,0.8201,0.8226,0.8233,0.824,0.8249,0.8077,0.8232,0.8231,0.8231,0.8231,0.823,0,0.7815,0.7831,0.7877,0.7923,0.7963,0.7939,0.7974,0.8011,0.8067,0.8097,0.814,0.8207,0.8261,0.828,0.8334,0.8372,0.8366,0.8387,0.8386,0.8392,0.8263,0.8244,0.8391,0.8391,0.8391,0.8391,0.8391,0.8391,0.7901,0.7976,0.7977,0.8065,0.8081,0.8142,0.8165,0.8195,0.8219,0.8294,0.8338,0.8349,0.8377,0.8432,0.8482,0.8486,0.8509,0.8534,0.8536,0.8417,0.8401,0.8385,0.8368,0.8538,0.8538,0.8661,0.8662,0.8663]},{"header":{"parameterUnit":"m.s-1","parameterCategory":1,"la1":30.2991,"la2":30.254,"lo1":-89.0895,"lo2":-89.0444,"dy":0.0017,"dx":0.0017,"nx":28,"ny":28,"refTime":"2023-08-09T21:00:00:Z","depth":0,"parameterNumber":3,"parameterNumberName":"V-component_of_WINDS"},"data":[0,0,0,0,0,0,0,0,0,0,0,0,0,0,0,0,0,0,0,0,0,0,0,0,0,0,0,0,0,0,0,0,0,0,0,0,0,0,0,0,0,0,0,0,0,0,0,0,0,0,0,0,0,0,0,0,0,0,5.4515,5.4518,0,5.4809,5.4812,5.4815,5.4871,5.4869,5.4866,5.4864,5.5157,5.5167,5.5177,0,0,0,0,0,0,0,0,0,0,0,0,0,5.3995,5.4005,5.4514,5.4518,5.4522,5.4808,5.4812,5.4816,5.4871,5.4869,5.4866,5.4863,5.5154,5.5166,5.5178,0,0,0,0,0,0,0,0,0,0,0,0,0,5.4248,5.4008,5.4514,5.4584,5.4593,5.4807,5.4812,5.4817,5.4872,5.4869,5.4865,5.4862,5.515,5.5165,5.518,5.5342,0,0,5.5225,5.5232,0,0,0,0,0,0,0,0,5.4234,5.4267,5.457,5.458,5.459,5.48,5.4737,5.4993,5.4873,5.4766,5.4864,5.486,5.5041,5.5064,5.5127,5.5355,5.5368,5.5227,5.5236,5.5242,5.5246,0,0,0,0,0,0,0,5.4216,5.4255,5.4631,5.4574,5.4587,5.4599,5.4631,5.4786,5.4919,5.4775,5.478,5.4814,5.5046,5.5112,5.5134,5.5372,5.5226,5.524,5.5249,5.5255,5.5752,5.5756,0,0,0,0,0,0,5.4187,5.424,5.4621,5.4639,5.44,5.4611,5.4647,5.4736,5.4918,5.4942,5.4817,5.4816,5.5089,5.5117,5.5145,5.535,5.5242,5.5256,5.5265,5.5748,5.5753,5.5757,0,0,0,0,0,0,5.4176,5.422,5.4609,5.4441,5.4492,5.4624,5.4723,5.4744,5.4811,5.495,5.4973,5.4861,5.5087,5.5124,5.5294,5.536,5.5263,5.5276,5.5743,5.5749,5.5755,5.5758,0,0,0,0,0,0,5.416,5.4216,5.428,5.4442,5.45,5.4755,5.4727,5.4752,5.4837,5.4839,5.4997,5.502,5.5087,5.5271,5.5309,5.5379,5.5288,5.5737,5.5745,5.5753,5.5753,5.5764,5.5773,0,0,0,0,0,5.4142,5.4267,5.4283,5.4329,5.4584,5.4759,5.4792,5.4869,5.4842,5.4908,5.4997,5.5015,5.5347,5.5288,5.5331,5.5407,5.5733,5.5743,5.5752,5.5748,5.5762,5.5773,0,0,0,0,0,0,5.4105,5.4289,5.4309,5.4491,5.4609,5.4768,5.4852,5.488,5.5006,5.5002,5.5089,5.5125,5.529,5.5365,5.5296,5.5575,5.5538,5.5557,5.552,5.5534,5.5544,5.5523,5.5301,0,0,0,0,0,5.4119,5.4248,5.4401,5.4546,5.4605,5.4718,5.4797,5.4847,5.4972,5.5021,5.5123,5.5241,5.5373,5.5457,5.5585,5.5763,5.58,5.5837,5.5847,5.5855,5.587,5.5972,5.5991,5.5789,5.5788,5.5788,0,0,5.4147,5.4264,5.4339,5.4542,5.4639,5.477,5.476,5.4897,5.4995,5.5041,5.521,5.5288,5.5426,5.5602,5.5684,5.5669,5.5934,5.5867,5.5872,5.5884,5.5984,5.6003,5.602,5.5795,5.5794,5.5793,0,0,5.4267,5.4367,5.4502,5.4601,5.475,5.4825,5.4857,5.5013,5.5068,5.5239,5.5278,5.5393,5.5617,5.5715,5.5794,5.5954,5.5976,5.5993,5.6047,5.6146,5.6162,5.6176,5.6236,5.6255,5.6007,5.6007,5.6007,0,5.4283,5.4484,5.4566,5.4705,5.4793,5.4844,5.498,5.5071,5.5253,5.5312,5.5294,5.5579,5.5675,5.5875,5.5915,5.5976,5.6016,5.5976,5.6153,5.6169,5.6183,5.6241,5.6263,5.6009,5.6008,5.6008,5.6008,0,5.4497,5.4636,5.4726,5.4905,5.5003,5.5139,5.5241,5.533,5.5372,5.5448,5.5622,5.574,5.5895,5.5946,5.5985,5.6153,5.614,5.6136,5.6101,5.6203,5.6258,5.6281,5.601,5.601,5.601,5.6009,0,0,5.4601,5.4827,5.4859,5.4942,5.5112,5.522,5.5358,5.5513,5.5589,5.5712,5.5831,5.6021,5.602,5.6109,5.6161,5.6247,5.6369,5.6234,5.6238,5.6257,5.6564,5.6567,5.6591,5.6384,5.6389,5.6392,5.6553,0,5.4743,5.4996,5.5075,5.5285,5.5415,5.5467,5.5588,5.5704,5.5779,5.5899,5.5981,5.6116,5.6103,5.6158,5.6246,5.6336,5.6432,5.6325,5.6495,5.6501,5.6462,5.662,5.6623,5.6769,5.6575,5.6578,5.6581,0,5.4942,5.5074,5.5298,5.5455,5.5512,5.562,5.577,5.5884,5.6017,5.6066,5.6168,5.6213,5.6359,5.6315,5.6517,5.6443,5.6517,5.6572,5.6579,5.6599,5.6548,5.6646,5.6817,5.6839,5.6616,5.6613,5.661,0,5.4999,5.5232,5.5398,5.5467,5.5652,5.5728,5.5808,5.5938,5.6027,5.6156,5.6215,5.6358,5.6437,5.6546,5.6629,5.6589,5.6825,5.6787,5.687,5.6868,5.6918,5.6914,5.7105,5.6962,5.6962,5.6961,5.6961,0,5.515,5.5285,5.5426,5.5528,5.5682,5.5771,5.592,5.6003,5.6119,5.6237,5.6288,5.6397,5.6499,5.6621,5.6686,5.6845,5.6879,5.6923,5.6939,5.692,5.6914,5.697,5.6963,5.6967,5.6966,5.6965,5.6964,0,5.5239,5.5339,5.5523,5.5686,5.573,5.5836,5.5974,5.6075,5.6153,5.6302,5.6342,5.6464,5.6612,5.6705,5.689,5.6934,5.7109,5.712,5.7065,5.7073,5.7152,5.7144,5.7387,5.7425,5.7254,5.7255,5.7257,0,5.533,5.5437,5.5612,5.5697,5.5779,5.5914,5.6006,5.6098,5.6191,5.6353,5.6434,5.6585,5.6711,5.6943,5.7048,5.719,5.7207,5.7283,5.7229,5.7207,5.7211,5.7205,5.7217,5.7291,5.7293,5.7294,5.7295,0,5.5482,5.5527,5.566,5.5811,5.5921,5.6043,5.6165,5.623,5.6343,5.6445,5.6598,5.6696,5.6889,5.7038,5.7191,5.7272,5.7303,5.7311,5.7339,5.7321,5.7286,5.7309,5.7092,5.7305,5.7304,5.7304,5.7303,5.7303,5.5577,5.5675,5.5816,5.5962,5.6065,5.6178,5.6282,5.6375,5.6506,5.6672,5.6717,5.6878,5.7009,5.7219,5.7303,5.7428,5.7418,5.7457,5.7467,5.7476,5.7479,5.7265,5.7456,5.7456,5.7456,5.7455,5.7455,0,5.5734,5.5827,5.5961,5.6133,5.6249,5.6271,5.6407,5.6502,5.6644,5.6766,5.6891,5.7067,5.7213,5.733,5.748,5.7559,5.7577,5.7595,5.7591,5.761,5.7477,5.7441,5.7578,5.7578,5.7578,5.7578,5.7578,5.7578,5.5829,5.5998,5.606,5.628,5.6372,5.6533,5.661,5.6715,5.6813,5.701,5.7133,5.7209,5.733,5.7489,5.7624,5.7655,5.7708,5.7725,5.7758,5.7632,5.7619,5.7606,5.7572,5.7735,5.7735,5.788,5.7882,5.7883]}]]